[[{"header":{"parameterUnit":"m.s-1","parameterCategory":1,"la1":30.2991,"la2":30.254,"lo1":-89.0895,"lo2":-89.0444,"dx":0.0017,"dy":0.0017,"nx":28,"ny":28,"refTime":"2022-12-15T09:00:00:Z","depth":0,"parameterNumber":2,"parameterNumberName":"U-component_of_WINDS"},"data":[0,0,0,0,0,0,0,0,0,0,0,0,0,0,0,0,0,0,0,0,0,0,0,0,0,0,0,0,0,0,0,0,0,0,0,0,0,0,0,0,0,0,0,0,0,0,0,0,0,0,0,0,0,0,0,0,0,0,1.3109,1.3109,0,1.3188,1.3189,1.319,1.3207,1.3207,1.3206,1.3206,1.3284,1.3287,1.329,0,0,0,0,0,0,0,0,0,0,0,0,0,1.2967,1.2969,1.3108,1.3109,1.311,1.3188,1.3189,1.319,1.3207,1.3207,1.3206,1.3205,1.3283,1.3287,1.329,0,0,0,0,0,0,0,0,0,0,0,0,0,1.3036,1.297,1.3108,1.3128,1.3131,1.3188,1.3189,1.3191,1.3208,1.3207,1.3206,1.3205,1.3282,1.3286,1.329,1.3332,0,0,1.3302,1.3304,0,0,0,0,0,0,0,0,1.3032,1.3041,1.3124,1.3127,1.313,1.3187,1.3168,1.3238,1.3208,1.3178,1.3206,1.3205,1.3252,1.3259,1.3276,1.3335,1.3339,1.3303,1.3305,1.3307,1.3308,0,0,0,0,0,0,0,1.3027,1.3037,1.314,1.3126,1.3129,1.3132,1.3141,1.3182,1.3219,1.3181,1.3182,1.3192,1.3254,1.3272,1.3278,1.334,1.3302,1.3306,1.3308,1.331,1.3436,1.3437,0,0,0,0,0,0,1.3019,1.3033,1.3137,1.3142,1.3078,1.3135,1.3145,1.317,1.3219,1.3226,1.3192,1.3192,1.3265,1.3273,1.328,1.3331,1.3307,1.331,1.3313,1.3435,1.3436,1.3437,0,0,0,0,0,0,1.3016,1.3028,1.3134,1.3088,1.3102,1.3139,1.3166,1.3172,1.319,1.3228,1.3234,1.3204,1.3265,1.3275,1.3319,1.3334,1.3312,1.3316,1.3434,1.3435,1.3436,1.3433,0,0,0,0,0,0,1.3012,1.3027,1.3044,1.3089,1.3104,1.3172,1.3167,1.3174,1.3197,1.3197,1.324,1.3246,1.3265,1.3313,1.3323,1.3339,1.3319,1.3432,1.3434,1.3436,1.3432,1.3434,1.3436,0,0,0,0,0,1.3007,1.304,1.3045,1.3058,1.3127,1.3173,1.3182,1.3204,1.3198,1.3215,1.3239,1.3245,1.3331,1.3317,1.3328,1.3346,1.3431,1.3434,1.3436,1.3431,1.3434,1.3436,0,0,0,0,0,0,1.2996,1.3046,1.3052,1.3101,1.3133,1.3176,1.3198,1.3206,1.324,1.3239,1.3263,1.3273,1.3315,1.3335,1.3319,1.3388,1.3381,1.3385,1.3373,1.3376,1.3378,1.3372,1.3322,0,0,0,0,0,1.2999,1.3034,1.3075,1.3114,1.313,1.3161,1.3182,1.3196,1.323,1.3243,1.327,1.3301,1.3335,1.3357,1.339,1.3435,1.3444,1.3453,1.3455,1.3456,1.346,1.3483,1.3487,1.3444,1.3444,1.3444,0,0,1.3006,1.3038,1.3058,1.3113,1.3139,1.3173,1.3172,1.3209,1.3233,1.3248,1.3291,1.3312,1.3348,1.3392,1.3413,1.341,1.3474,1.3459,1.346,1.3463,1.3486,1.349,1.3493,1.3446,1.3445,1.3445,0,0,1.3036,1.3064,1.3099,1.3125,1.3165,1.3185,1.3194,1.3236,1.325,1.3294,1.3305,1.3334,1.3393,1.3417,1.3438,1.3475,1.3482,1.3485,1.3496,1.3519,1.3522,1.3525,1.3537,1.3541,1.3489,1.3489,1.3489,0,1.3039,1.3092,1.3116,1.3151,1.3174,1.3189,1.3224,1.3248,1.3296,1.331,1.3307,1.338,1.3405,1.3454,1.3463,1.348,1.3489,1.348,1.352,1.3523,1.3526,1.3538,1.3543,1.3489,1.3489,1.3489,1.3489,0,1.3093,1.3129,1.3152,1.3199,1.3225,1.3259,1.3287,1.3309,1.3321,1.3341,1.3384,1.3415,1.3454,1.3467,1.3479,1.3518,1.3514,1.3515,1.3508,1.353,1.3541,1.3546,1.3489,1.3489,1.3489,1.3489,0,0,1.3119,1.3177,1.3185,1.3206,1.3251,1.3278,1.3313,1.3352,1.337,1.3402,1.3431,1.3479,1.348,1.3503,1.3517,1.3537,1.3562,1.3535,1.3536,1.3538,1.3605,1.3603,1.3608,1.3567,1.3568,1.3569,1.3602,0,1.3153,1.3216,1.3238,1.329,1.3322,1.3337,1.3366,1.3396,1.3415,1.3445,1.3466,1.3499,1.3498,1.3512,1.3532,1.3555,1.3576,1.3553,1.3592,1.3593,1.3582,1.3615,1.3614,1.3643,1.3606,1.3607,1.3608,0,1.3202,1.3235,1.329,1.3329,1.3344,1.337,1.3407,1.3435,1.3468,1.3481,1.3506,1.3519,1.3553,1.3545,1.3592,1.3576,1.3593,1.3606,1.3608,1.3611,1.3601,1.3618,1.3653,1.3657,1.3615,1.3614,1.3614,0,1.3213,1.3272,1.3312,1.3329,1.3376,1.3394,1.3414,1.3447,1.3468,1.35,1.3514,1.3549,1.3568,1.3593,1.3614,1.3606,1.3659,1.3652,1.3669,1.3668,1.3679,1.3678,1.3716,1.3691,1.3691,1.3691,1.3691,0,1.3248,1.3281,1.3317,1.3342,1.3378,1.3402,1.3437,1.3458,1.3487,1.3514,1.3529,1.3554,1.3581,1.3609,1.3625,1.3661,1.3669,1.3679,1.3683,1.3678,1.3676,1.3688,1.3687,1.3693,1.3692,1.3692,1.3692,0,1.3267,1.3293,1.3337,1.3378,1.3389,1.3414,1.3448,1.3471,1.3491,1.3526,1.3535,1.3566,1.36,1.3623,1.3667,1.3678,1.3716,1.372,1.3705,1.3706,1.3721,1.3719,1.3768,1.3775,1.3747,1.3747,1.3747,0,1.3287,1.3313,1.3356,1.3376,1.3396,1.3429,1.3451,1.3474,1.3497,1.3535,1.3554,1.3589,1.3618,1.3671,1.3697,1.3729,1.3734,1.3748,1.3739,1.3732,1.3732,1.373,1.3732,1.375,1.375,1.375,1.375,0,1.332,1.3331,1.3363,1.3399,1.3425,1.3455,1.3484,1.3499,1.3528,1.3551,1.3587,1.3609,1.3654,1.3688,1.3723,1.3742,1.375,1.3753,1.3758,1.3753,1.3742,1.3747,1.3708,1.3752,1.3752,1.3751,1.3751,1.3751,1.3339,1.3362,1.3396,1.3431,1.3455,1.3482,1.3506,1.3528,1.3559,1.3597,1.3609,1.3645,1.3676,1.3724,1.3743,1.3771,1.377,1.3778,1.378,1.3781,1.378,1.3739,1.3777,1.3777,1.3777,1.3777,1.3777,0,1.3372,1.3394,1.3426,1.3467,1.3493,1.35,1.3532,1.3554,1.3586,1.3614,1.3643,1.3682,1.3715,1.3742,1.3776,1.3792,1.3797,1.38,1.3799,1.3803,1.378,1.3771,1.3796,1.3796,1.3796,1.3796,1.3796,1.3796,1.3392,1.3431,1.3446,1.3496,1.3518,1.3554,1.3572,1.3596,1.3618,1.3662,1.369,1.3708,1.3735,1.3771,1.38,1.3808,1.3818,1.3821,1.3828,1.3807,1.3804,1.3802,1.3794,1.3823,1.3823,1.3849,1.3849,1.3849]},{"header":{"parameterUnit":"m.s-1","parameterCategory":1,"la1":30.2991,"la2":30.254,"lo1":-89.0895,"lo2":-89.0444,"dx":0.0017,"dy":0.0017,"nx":28,"ny":28,"refTime":"2022-12-15T09:00:00:Z","depth":0,"parameterNumber":3,"parameterNumberName":"V-component_of_WINDS"},"data":[0,0,0,0,0,0,0,0,0,0,0,0,0,0,0,0,0,0,0,0,0,0,0,0,0,0,0,0,0,0,0,0,0,0,0,0,0,0,0,0,0,0,0,0,0,0,0,0,0,0,0,0,0,0,0,0,0,0,-0.4584,-0.4582,0,-0.4381,-0.4378,-0.4376,-0.4353,-0.4355,-0.4357,-0.4359,-0.4145,-0.4137,-0.413,0,0,0,0,0,0,0,0,0,0,0,0,0,-0.4947,-0.4941,-0.4584,-0.4582,-0.4579,-0.4381,-0.4378,-0.4375,-0.4353,-0.4355,-0.4358,-0.436,-0.4147,-0.4138,-0.4129,0,0,0,0,0,0,0,0,0,0,0,0,0,-0.4771,-0.4938,-0.4585,-0.4544,-0.4538,-0.4382,-0.4378,-0.4375,-0.4352,-0.4355,-0.4358,-0.4361,-0.415,-0.4139,-0.4128,-0.3996,0,0,-0.4093,-0.4088,0,0,0,0,0,0,0,0,-0.4781,-0.4758,-0.4553,-0.4547,-0.454,-0.4396,-0.4428,-0.4247,-0.4351,-0.4423,-0.4359,-0.4363,-0.4225,-0.4208,-0.4163,-0.3986,-0.3977,-0.4092,-0.4085,-0.408,-0.4077,0,0,0,0,0,0,0,-0.4793,-0.4766,-0.4503,-0.455,-0.4542,-0.4534,-0.4512,-0.4393,-0.4309,-0.4417,-0.4415,-0.4391,-0.4222,-0.4174,-0.4158,-0.3973,-0.4092,-0.4082,-0.4075,-0.4071,-0.3676,-0.3673,0,0,0,0,0,0,-0.4814,-0.4777,-0.451,-0.4497,-0.4671,-0.4525,-0.4501,-0.4439,-0.431,-0.4294,-0.4389,-0.4391,-0.4192,-0.4171,-0.415,-0.3985,-0.408,-0.407,-0.4063,-0.368,-0.3675,-0.3671,0,0,0,0,0,0,-0.4822,-0.479,-0.4518,-0.4636,-0.4601,-0.4516,-0.4446,-0.4433,-0.4384,-0.4289,-0.4274,-0.4355,-0.4194,-0.4166,-0.4034,-0.3978,-0.4064,-0.4054,-0.3684,-0.3678,-0.3673,-0.3656,0,0,0,0,0,0,-0.4832,-0.4793,-0.4743,-0.4635,-0.4595,-0.4407,-0.4442,-0.4427,-0.4366,-0.4366,-0.4253,-0.4238,-0.4194,-0.4052,-0.4023,-0.3963,-0.4045,-0.3688,-0.3681,-0.3675,-0.3661,-0.3651,-0.3642,0,0,0,0,0,-0.4845,-0.4746,-0.4741,-0.4709,-0.4531,-0.4404,-0.4381,-0.4334,-0.4361,-0.4309,-0.4248,-0.4241,-0.3989,-0.4038,-0.4006,-0.3942,-0.3692,-0.3683,-0.3675,-0.3665,-0.3653,-0.3642,0,0,0,0,0,0,-0.4847,-0.4731,-0.4724,-0.4587,-0.4506,-0.4401,-0.4334,-0.4322,-0.423,-0.4235,-0.4179,-0.4154,-0.4024,-0.397,-0.4027,-0.3807,-0.3843,-0.3828,-0.3846,-0.3833,-0.3824,-0.3838,-0.4036,0,0,0,0,0,-0.4832,-0.4741,-0.4643,-0.4531,-0.4491,-0.442,-0.4363,-0.4334,-0.4247,-0.4212,-0.4141,-0.4055,-0.3956,-0.3892,-0.3796,-0.3654,-0.3628,-0.3594,-0.3584,-0.3577,-0.3564,-0.3483,-0.3466,-0.3644,-0.3644,-0.3645,0,0,-0.4799,-0.4724,-0.4669,-0.453,-0.4464,-0.4368,-0.4391,-0.4289,-0.4217,-0.4196,-0.4067,-0.4012,-0.3912,-0.3775,-0.371,-0.3726,-0.3509,-0.3566,-0.3561,-0.3552,-0.3473,-0.3456,-0.3441,-0.3639,-0.364,-0.3641,0,0,-0.4689,-0.4625,-0.4524,-0.4457,-0.4357,-0.4311,-0.4287,-0.4183,-0.4146,-0.4017,-0.3998,-0.3911,-0.3743,-0.3672,-0.3614,-0.3478,-0.3468,-0.3449,-0.3396,-0.3318,-0.3304,-0.3291,-0.3241,-0.3224,-0.3436,-0.3436,-0.3436,0,-0.466,-0.4517,-0.4473,-0.4371,-0.431,-0.4289,-0.4185,-0.4122,-0.3995,-0.3952,-0.3972,-0.376,-0.3691,-0.3536,-0.3503,-0.3457,-0.3426,-0.346,-0.331,-0.3297,-0.3284,-0.3235,-0.3217,-0.3435,-0.3435,-0.3435,-0.3435,0,-0.4485,-0.4386,-0.4316,-0.4196,-0.4127,-0.4025,-0.3963,-0.3898,-0.3876,-0.3827,-0.3694,-0.3612,-0.3498,-0.3459,-0.3436,-0.33,-0.3312,-0.3322,-0.3357,-0.3266,-0.3219,-0.32,-0.3432,-0.3433,-0.3433,-0.3434,0,0,-0.4368,-0.4226,-0.4201,-0.4146,-0.4035,-0.3956,-0.3853,-0.3744,-0.3688,-0.3601,-0.3511,-0.337,-0.3378,-0.3312,-0.3281,-0.3213,-0.3108,-0.323,-0.3227,-0.3208,-0.2951,-0.2943,-0.2922,-0.3102,-0.3098,-0.3095,-0.2958,0,-0.4244,-0.4061,-0.4018,-0.386,-0.3767,-0.3746,-0.3656,-0.3576,-0.3528,-0.344,-0.3386,-0.3286,-0.3305,-0.3265,-0.3197,-0.3135,-0.3055,-0.3145,-0.3015,-0.3011,-0.3038,-0.2897,-0.2888,-0.2763,-0.294,-0.2937,-0.2935,0,-0.4074,-0.3986,-0.3819,-0.3719,-0.3678,-0.3598,-0.3494,-0.3412,-0.3321,-0.329,-0.3218,-0.3193,-0.3082,-0.3125,-0.2971,-0.3033,-0.2977,-0.2939,-0.2933,-0.2917,-0.2965,-0.2875,-0.2723,-0.2703,-0.2906,-0.2908,-0.291,0,-0.4003,-0.3842,-0.3721,-0.3675,-0.3556,-0.35,-0.3448,-0.336,-0.3297,-0.3206,-0.3164,-0.3061,-0.3004,-0.2923,-0.2871,-0.2907,-0.272,-0.2759,-0.2689,-0.269,-0.2648,-0.2651,-0.2482,-0.2617,-0.2617,-0.2617,-0.2618,0,-0.3867,-0.3765,-0.3688,-0.3613,-0.3497,-0.3449,-0.3336,-0.3283,-0.3205,-0.3118,-0.3094,-0.3013,-0.295,-0.286,-0.2818,-0.2695,-0.267,-0.264,-0.263,-0.2641,-0.2644,-0.2602,-0.2608,-0.2612,-0.2614,-0.2615,-0.2615,0,-0.3767,-0.3712,-0.3578,-0.3478,-0.345,-0.3369,-0.3282,-0.3207,-0.3159,-0.3049,-0.3021,-0.2944,-0.2836,-0.2777,-0.2641,-0.2613,-0.2475,-0.247,-0.2506,-0.2501,-0.2434,-0.244,-0.2229,-0.2198,-0.2356,-0.2355,-0.2354,0,-0.3683,-0.3604,-0.3496,-0.3437,-0.3384,-0.3289,-0.3225,-0.3175,-0.3109,-0.3,-0.2938,-0.2829,-0.2739,-0.2568,-0.2498,-0.2394,-0.2385,-0.2319,-0.2369,-0.2382,-0.2381,-0.2385,-0.2376,-0.2309,-0.2307,-0.2306,-0.2305,0,-0.3538,-0.3515,-0.3425,-0.3324,-0.3249,-0.3167,-0.3086,-0.3039,-0.2975,-0.2901,-0.2792,-0.2722,-0.2585,-0.2476,-0.2366,-0.231,-0.2295,-0.2291,-0.2268,-0.2277,-0.23,-0.2285,-0.2479,-0.2295,-0.2296,-0.2297,-0.2297,-0.2298,-0.3442,-0.337,-0.3283,-0.3183,-0.3117,-0.3042,-0.2967,-0.291,-0.2818,-0.2703,-0.2679,-0.2563,-0.2473,-0.2325,-0.2266,-0.2173,-0.2185,-0.2154,-0.2146,-0.2138,-0.2134,-0.2318,-0.2153,-0.2153,-0.2154,-0.2154,-0.2154,0,-0.3294,-0.3237,-0.3146,-0.3034,-0.2955,-0.2952,-0.2861,-0.2795,-0.2693,-0.2612,-0.2525,-0.2398,-0.2293,-0.2216,-0.2109,-0.2049,-0.2039,-0.2022,-0.2024,-0.2011,-0.213,-0.2159,-0.2031,-0.2031,-0.2031,-0.2031,-0.2031,-0.2031,-0.3207,-0.3086,-0.3052,-0.2898,-0.2841,-0.2728,-0.2677,-0.2607,-0.2542,-0.2402,-0.2315,-0.2267,-0.2187,-0.2073,-0.1976,-0.1956,-0.1916,-0.1899,-0.1878,-0.199,-0.2003,-0.2015,-0.2042,-0.1891,-0.1891,-0.1766,-0.1764,-0.1764]}]]